Regional Weather Roundup
Issued by NWS

Home | Current Version | Previous Version | Graphics & Text | Print | Product List | Glossary Off
Versions: 1 2 3 4 5 6 7 8 9 10 11 12 13 14 15 16 17 18 19 20 21 22 23 24 25 26 27 28 29 30 31 32 33 34 35 36 37 38 39 40 41 42 43 44 45 46 47 48 49 50

000
ASUS43 KTOP 232308
RWRKS

WEATHER ROUNDUP FOR KANSAS
NATIONAL WEATHER SERVICE GOODLAND KS
600 PM CDT WED APR 23 2014

NOTE:  "FAIR" INDICATES FEW OR NO CLOUDS BELOW 12,000 FEET WITH NO
SIGNIFICANT WEATHER AND/OR OBSTRUCTIONS TO VISIBILITY.

KSZ001>006-013>018-027>032-041>047-240000-
NORTHWEST KANSAS

CITY           SKY/WX    TMP DP  RH WIND       PRES   REMARKS
GOODLAND       MOSUNNY   78  40  25 NE23G30   29.51S
HAYS           CLOUDY   N/A N/A N/A S38G48    29.49F
HILL CITY      PTSUNNY   79  50  36 S25G37    29.46F
RUSSELL        CLOUDY    81  51  35 S31G43    29.51F
$$

KSZ061>065-074>080-084>089-240000-
SOUTHWEST KANSAS

CITY           SKY/WX    TMP DP  RH WIND       PRES   REMARKS
DODGE CITY     CLOUDY    78  43  28 S28G38    29.53F
ELKHART          N/A     85  29  13 S21         N/A
GARDEN CITY    PTSUNNY   83  51  33 S35G43    29.48F
GREAT BEND     CLOUDY    82  52  34 S30G44    29.53F
LIBERAL        PTSUNNY   79  57  47 SE25G35   29.52F
PRATT          CLOUDY    81  48  32 S21G32    29.58F
$$

KSZ066>073-081>083-090>101-240000-
SOUTHEAST KANSAS

CITY           SKY/WX    TMP DP  RH WIND       PRES   REMARKS
CHANUTE        SUNNY     80  49  33 S18       29.75F
COFFEYVILLE    SUNNY     81  54  39 S21       29.75F
HUTCHINSON     CLOUDY    82  47  29 S22G32    29.59F
MEDICINE LODGE   N/A     83  52  34 S17G30    29.57F
NEWTON         CLOUDY    81  43  26 S23G31    29.66F
PARSONS        SUNNY     81  50  33 S12G22    29.76F
WICHITA INTL   CLOUDY    82  44  26 S23G30    29.63F
WICHITA JABRA  CLOUDY    82  45  27 S22G36    29.64F
WICHITA MCCONL CLOUDY    82  43  24 S29G36    29.64F
$$

KSZ007>012-019>026-033>040-048>060-102>105-240000-
NORTHEAST KANSAS

CITY           SKY/WX    TMP DP  RH WIND       PRES   REMARKS
CONCORDIA      CLOUDY    80  49  33 S20G26    29.54F
EMPORIA        MOSUNNY   79  48  33 SE23G32   29.67F
LAWRENCE       MOSUNNY   78  46  32 SE25G33   29.70F
MANHATTAN      CLOUDY    84  42  22 S25G41    29.58F
OLATHE IND     MOSUNNY   75  46  35 SE22G28   29.75F
OLATHE EXE     MOSUNNY   73  46  38 SE16G26   29.75F
SALINA         CLOUDY    83  47  28 S28G38    29.55S
TOPEKA BILLARD PTSUNNY   80  46  30 S22G29    29.67F
TOPEKA FORBES  PTSUNNY   80  44  27 S25G37    29.67F
$$



USA.gov is the U.S. government's official web portal to all federal, state and local government web resources and services.